Change the Weather History Date:

Friday, February 24, 2012

  Actual Average Record
Temperature  
Mean Temperature 27 °F 27 °F  
Max Temperature 33 °F 38 °F 67 °F (1995)
Min Temperature 20 °F 16 °F -26 °F (1922)
Degree Days  
Heating Degree Days 38 38  
Month to date heating degree days 900 949  
Since 1 July heating degree days 5099 5654  
Cooling Degree Days 0 0  
Month to date cooling degree days 0 0  
Year to date cooling degree days 0 0  
Moisture  
Dew Point 17 °F    
Average Humidity 67    
Maximum Humidity 84    
Minimum Humidity 49    
Precipitation  
Precipitation T in 0.01 in 0.23 in (1977)
Month to date precipitation 0.36 0.37  
Year to date precipitation 0.94 0.94  
Snow  
Snow 0.00 in - - ()
Snow Depth 4.00 in    
Sea Level Pressure  
Sea Level Pressure 30.11 in    
Wind  
Wind Speed 7 mph (SW)    
Max Wind Speed 18 mph    
Max Gust Speed 25 mph    
Visibility 10 miles    
Events      
T = Trace of Precipitation, MM = Missing Value Source: NWS Daily Summary

Daily Weather History Graph

Daily Weather History Graph

Search for Another Location

Airport or City:

Trip Planner

Search our weather history database for the weather conditions in past years. The results will help you decide how hot, cold, wet, or windy it might be!

Date:

Astronomy

Feb. 24, 2012 Rise Set
Actual Time 7:07 AM MST 5:55 PM MST
Civil Twilight 6:36 AM MST 6:26 PM MST
Nautical Twilight 6:01 AM MST 7:01 PM MST
Astronomical Twilight 5:26 AM MST 7:36 PM MST
Moon 7:49 AM MST (2/24) 9:19 PM MST (2/24)
Length of Visible Light 11h 49m
Length of Day
10h 47m
Waxing Crescent, 8% of the Moon is Illuminated
Feb 24
Waxing Crescent
Feb 29
First Quarter
Mar 8
Full
Mar 14
Last Quarter
Mar 22
New

Hourly Weather History & Observations

Time (MST) Temp. Windchill Dew Point Humidity Pressure Visibility Wind Dir Wind Speed Gust Speed Precip Events Conditions
12:54 AM 21.9 °F 12.5 °F 15.1 °F 75% 30.11 in 10.0 mi SW 8.1 mph - N/A   Overcast
1:54 AM 21.0 °F 13.4 °F 12.9 °F 71% 30.12 in 10.0 mi WNW 5.8 mph - N/A   Overcast
2:54 AM 23.0 °F 11.7 °F 15.1 °F 72% 30.14 in 10.0 mi WNW 11.5 mph - N/A   Overcast
3:54 AM 25.0 °F 12.2 °F 18.0 °F 75% 30.14 in 10.0 mi WNW 16.1 mph - 0.00 in   Overcast
4:54 AM 24.1 °F 12.0 °F 16.0 °F 71% 30.17 in 10.0 mi West 13.8 mph - N/A   Overcast
5:54 AM 21.9 °F 11.7 °F 17.1 °F 82% 30.21 in 10.0 mi West 9.2 mph - N/A   Overcast
6:54 AM 21.9 °F 13.4 °F 17.1 °F 82% 30.23 in 10.0 mi West 6.9 mph - N/A   Overcast
7:54 AM 21.9 °F 17.2 °F 17.1 °F 82% 30.25 in 10.0 mi West 3.5 mph - N/A   Overcast
8:54 AM 23.0 °F 14.7 °F 17.1 °F 78% 30.26 in 10.0 mi West 6.9 mph - N/A   Overcast
9:54 AM 24.1 °F 17.0 °F 18.0 °F 77% 30.24 in 10.0 mi West 5.8 mph - N/A   Overcast
10:54 AM 25.0 °F 19.3 °F 16.0 °F 69% 30.23 in 10.0 mi West 4.6 mph - N/A   Overcast
11:54 AM 27.0 °F - 16.0 °F 63% 30.21 in 10.0 mi Calm Calm - N/A   Mostly Cloudy
12:54 PM 28.9 °F - 14.0 °F 54% 30.19 in 10.0 mi Calm Calm - N/A   Clear
1:54 PM 30.0 °F - 14.0 °F 51% 30.16 in 10.0 mi Calm Calm - N/A   Mostly Cloudy
2:54 PM 30.0 °F - 15.1 °F 54% 30.14 in 10.0 mi Calm Calm - N/A   Overcast
3:54 PM 30.9 °F 27.5 °F 16.0 °F 54% 30.11 in 10.0 mi East 3.5 mph - N/A   Mostly Cloudy
4:54 PM 28.0 °F 20.8 °F 17.1 °F 63% 30.09 in 10.0 mi East 6.9 mph - N/A   Partly Cloudy
5:54 PM 28.9 °F 21.1 °F 19.0 °F 67% 30.07 in 10.0 mi ESE 8.1 mph - N/A   Overcast
6:54 PM 28.0 °F 18.1 °F 19.0 °F 69% 30.05 in 10.0 mi ESE 11.5 mph - N/A   Overcast
7:54 PM 28.9 °F 19.2 °F 19.9 °F 69% 30.01 in 10.0 mi ESE 11.5 mph - N/A   Overcast
8:54 PM 28.0 °F 19.3 °F 19.9 °F 72% 29.97 in 10.0 mi ESE 9.2 mph - N/A   Overcast
9:54 PM 28.0 °F 18.6 °F 19.9 °F 72% 29.91 in 10.0 mi ESE 10.4 mph - N/A   Overcast
10:54 PM 28.0 °F 20.8 °F 19.0 °F 69% 29.86 in 10.0 mi ESE 6.9 mph - N/A   Mostly Cloudy
11:54 PM 26.1 °F 15.6 °F 18.0 °F 71% 29.80 in 10.0 mi East 11.5 mph - N/A   Clear